Regional Weather Roundup
Issued by NWS Goodland, KS

Home | Current Version | Previous Version | Graphics & Text | Print | Product List | Glossary On
Versions: 1 2 3 4 5 6 7 8 9 10 11 12 13 14 15 16 17 18 19 20 21 22 23 24 25 26 27 28 29 30 31 32 33 34 35 36 37 38 39 40 41 42 43 44 45 46 47 48 49 50
000
ASUS43 KGLD 301659
RWRGLD

GOODLAND FORECAST AREA HOURLY WEATHER ROUNDUP
NATIONAL WEATHER SERVICE GOODLAND KS
1100 AM MDT THU MAR 30 2017

...OFFICIAL OBSERVATIONS...

CITY           SKY/WX    TMP DP  RH WIND       PRES   REMARKS
GOODLAND KS    CLOUDY    45  40  82 N7        29.80F
HILL CITY KS   CLOUDY    42  38  85 N14G22    29.81F
IMPERIAL NEB   MOSUNNY   46  38  73 VRB3      29.80F
MCCOOK NEB     CLOUDY    41  36  82 NE10      29.82S
AKRON CO       CLOUDY    48  37  65 W5        29.78F
BURLINGTON CO  CLOUDY    48  40  73 NE3       29.80S
LIMON CO       CLOUDY    55  31  39 NW6       29.81S
$$

...UNOFFICIAL OBSERVATIONS...

CITY           SKY/WX    TMP DP  RH WIND       PRES   REMARKS
NORTON KS      CLOUDY    37  34  87 N12       29.80F
SHARON SPRINGS   N/A     42  41  97 CALM        N/A
TRENTON NEB      N/A     43  32  65 N5          N/A
KIT CARSON CO    N/A     52  39  62 CALM        N/A
YUMA CO        FAIR      45  37  76 E3        29.79S
$$




USA.gov is the U.S. government's official web portal to all federal, state and local government web resources and services.